GPS BIIA-10 (PRN 32) 1 20959U 90103A 12032.85397379 .00000065 00000-0 10000-3 0 4458 2 20959 54.5808 244.2032 0120873 323.1334 36.1168 2.00553307155151 GPS BIIA-14 (PRN 26) 1 22014U 92039A 12033.15016619 -.00000059 00000-0 10000-3 0 2699 2 22014 56.4154 303.9552 0204688 66.9447 295.2407 2.00566404136890 GPS BIIA-15 (PRN 27) 1 22108U 92058A 12034.24764953 -.00000070 00000-0 10000-3 0 1889 2 22108 56.2614 356.8560 0221426 294.6058 63.1029 2.00577465142096 GPS BIIA-21 (PRN 09) 1 22700U 93042A 12034.28023391 -.00000068 00000-0 10000-3 0 5105 2 22700 56.4046 358.3770 0169238 92.0753 269.8665 2.00568115136253 GPS BIIA-22 (PRN 30) 1 22779U 93054A 12034.01873214 -.00000016 00000-0 10000-3 0 1112 2 22779 54.9171 53.3754 0106254 89.2247 272.0479 2.00571488135008 GPS BIIA-23 (PRN 04) 1 22877U 93068A 12033.92199072 .00000039 00000-0 10000-3 0 8658 2 22877 53.7345 179.1417 0098197 46.2819 314.4953 2.00550094133897 GPS BIIA-24 (PRN 06) 1 23027U 94016A 12034.11586163 -.00000028 00000-0 10000-3 0 8270 2 23027 53.7078 115.9163 0069934 323.3701 36.1860 2.00560019131206 GPS BIIA-25 (PRN 03) 1 23833U 96019A 12033.63208158 -.00000032 00000-0 10000-3 0 245 2 23833 53.3099 111.6000 0148343 67.0850 294.5088 2.00560093116175 GPS BIIA-26 (PRN 10) 1 23953U 96041A 12033.99272450 .00000076 00000-0 10000-3 0 5150 2 23953 54.2496 240.3333 0109691 41.5502 319.3256 2.00564355113975 GPS BIIR-2 (PRN 13) 1 24876U 97035A 12033.50985167 -.00000056 00000-0 10000-3 0 9818 2 24876 56.5547 304.2620 0044745 112.5329 247.9863 2.00557534106495 GPS BIIA-28 (PRN 08) 1 25030U 97067A 12033.13958288 -.00000062 00000-0 10000-3 0 9300 2 25030 57.1621 4.5764 0121613 190.4799 169.2754 2.00559221104389 GPS BIIR-3 (PRN 11) 1 25933U 99055A 12033.26228460 .00000013 00000-0 10000-3 0 4251 2 25933 50.8803 163.8557 0125809 58.5191 302.6721 2.00562394 90301 GPS BIIR-4 (PRN 20) 1 26360U 00025A 12033.87811908 .00000076 00000-0 10000-3 0 5123 2 26360 53.3444 236.7137 0049042 72.4098 288.1748 2.00551076 86019 GPS BIIR-5 (PRN 28) 1 26407U 00040A 12034.22379374 -.00000009 00000-0 10000-3 0 4630 2 26407 56.0134 61.8247 0180243 254.3842 103.6801 2.00559797 84694 GPS BIIR-6 (PRN 14) 1 26605U 00071A 12033.32622850 -.00000056 00000-0 10000-3 0 4805 2 26605 56.1516 302.7815 0064019 243.3663 116.0234 2.00553107 82277 GPS BIIR-7 (PRN 18) 1 26690U 01004A 12033.18600504 .00000070 00000-0 10000-3 0 3536 2 26690 53.3324 239.8258 0129478 234.9456 123.8852 2.00564229 80687 GPS BIIR-8 (PRN 16) 1 27663U 03005A 12034.05600036 -.00000010 00000-0 10000-3 0 7750 2 27663 56.1088 61.4371 0063430 353.5073 6.4735 2.00572548 66053 GPS BIIR-9 (PRN 21) 1 27704U 03010A 12033.10915823 .00000044 00000-0 10000-3 0 6744 2 27704 53.3705 179.5602 0186390 229.0209 129.3315 2.00564086 64821 GPS BIIR-10 (PRN 22) 1 28129U 03058A 12030.74569008 .00000049 00000-0 10000-3 0 2476 2 28129 53.1904 240.1350 0058369 247.4304 111.9973 2.00560616 59489 GPS BIIR-11 (PRN 19) 1 28190U 04009A 12033.68101765 -.00000028 00000-0 10000-3 0 2387 2 28190 54.9918 124.1660 0078135 6.7869 353.3346 2.00555809 57719 GPS BIIR-12 (PRN 23) 1 28361U 04023A 12033.96834021 -.00000046 00000-0 10000-3 0 548 2 28361 55.0928 299.8934 0075806 188.5159 171.4059 2.00562460 55808 GPS BIIR-13 (PRN 02) 1 28474U 04045A 12034.45932848 .00000034 00000-0 10000-3 0 9419 2 28474 53.7893 178.1426 0109190 195.9952 163.6254 2.00567911 53175 GPS BIIRM-1 (PRN 17) 1 28874U 05038A 12034.31186796 -.00000025 00000-0 10000-3 0 2047 2 28874 55.1405 121.0830 0072420 226.5155 132.9040 2.00569106 46599 GPS BIIRM-2 (PRN 31) 1 29486U 06042A 12033.92541964 -.00000068 00000-0 10000-3 0 5591 2 29486 56.1930 0.0504 0082666 306.9661 52.2800 2.00576079 39288 GPS BIIRM-3 (PRN 12) 1 29601U 06052A 12034.36804414 -.00000007 00000-0 10000-3 0 6181 2 29601 56.0571 60.3889 0037089 353.0721 6.9472 2.00574429 38200 GPS BIIRM-4 (PRN 15) 1 32260U 07047A 12034.18761480 -.00000042 00000-0 00000+0 0 3233 2 32260 54.2523 297.9369 0042589 357.5485 2.4816 2.00554101 31593 GPS BIIRM-5 (PRN 29) 1 32384U 07062A 12034.49904078 -.00000024 00000-0 10000-3 0 3597 2 32384 55.1671 121.5630 0024202 290.6130 69.1548 2.00566276 30321 GPS BIIRM-6 (PRN 07) 1 32711U 08012A 12033.59411202 -.00000069 00000-0 10000-3 0 1361 2 32711 55.9011 359.9279 0051290 190.8289 169.0653 2.00569690 28518 GPS BIIRM-8 (PRN 05) 1 35752U 09043A 12033.06127679 .00000074 00000-0 10000-3 0 8753 2 35752 54.5426 239.0962 0026502 12.3711 347.7445 2.00572857 18088 GPS BIIF-1 (PRN 25) 1 36585U 10022A 12034.40896806 -.00000010 00000-0 10000-3 0 7100 2 36585 55.4169 58.5102 0010376 29.5766 330.5437 2.00552373 12355 GPS BIIF-2 (PRN 01) 1 37753U 11036A 12033.29452026 .00000045 00000-0 00000+0 0 1692 2 37753 55.0147 178.8342 0003815 40.7536 319.2471 2.00564952 4019